Terug naar catalogus

STARLINK-31515

ActiefCommunicatieVLEO
NORAD 59476·PAYLOAD·🇺🇸 United States

Gelanceerd Apr 10, 2024 vanaf Cape Canaveral Space Force Station

Loading…

Volgende Passages (komende 24 uur)

TLE

VersSource: CelesTrak SupGP

Epoch: Sep 14, 2026, 20:55 UTC

1 59476C 24068X   26257.87201389  .00059749  00000+0  21642-2 0  2578
2 59476  43.0034  46.0889 0001460 274.0196 169.9810 15.27547538    14

Volg STARLINK-31515 in realtime met AllMySat

Download on the App Store